Weather in Kindal

Russia / Tomsk District     59°09′09″N   80°34′45″E
temp.,
°C
wind,
m/s
gust,
m/s
humid.,
%
clouds,
%
prec.,
mm/h
press.,
hPa
HPBL,
m
9 december, thu
thu901:00−23w359810 0.0 103465
04:00−21wsw4896100 0.0 1034188
07:00−19wsw51093100 0.0 1034222
10:00−17wsw61290100 0.0 1033289
13:00−14wsw71489100 0.0 1033398
16:00−14wsw61387100 0.0 1033377
19:00−14wsw6128694 0.0 1033294
22:00−16wsw510915 0.0 1033171
10 december, fri
fri1001:00−15wsw489696 0.0 1033146
04:00−12wsw599484 0.2 1033292
07:00−13wsw369588 0.3 1033111
10:00−14sw359759 0.1 103468
13:00−14sw359683 0.1 1034109
16:00−11s3695100 0.0 1033158
19:00−9s4995100 0.3 1031274
22:00−8s51190100 0.1 1029304
11 december, sat
sat1101:00−8ssw61280100 0.1 1026287
04:00−8ssw61373100 0.0 1024319
07:00−7ssw71473100 0.0 1022419
10:00−8sw71378100 0.0 1020414
13:00−8sw6139099 0.0 1020540
16:00−8wsw5109090 0.1 1019423
19:00−9w51090100 0.1 1020403
22:00−16w479515 0.0 1020107
12 december, sun
sun1201:00−17w479670 0.1 1021113
04:00−18w479763 0.0 1021116
07:00−20w479866 0.0 1021100
10:00−18w5109487 0.0 1021279
13:00−17wnw61092100 0.1 1022498
16:00−18wnw5993100 0.1 1023354
19:00−19wnw5994100 0.1 1025353
22:00−21wnw489787 0.0 1026163
13 december, mon
mon1301:00−23wnw3598100 0.0 102679
04:00−23w349784 0.0 102669
07:00−23w2298100 0.0 102623
10:00−20wnw119395 0.0 102664
13:00−19nne019579 0.1 1026102
16:00−18nne119781 0.1 102652
19:00−21nne2210066 0.1 102713
22:00−27n2210012 0.0 102713